{"data":{"norad_id":68997,"epoch":"2026-09-19T23:48:05.783040Z","epoch_age_seconds":63211,"freshness":"FRESH","line1":"1 68997U 26100T   26262.99173360  .00000979  00000+0  10604-3 0  9992","line2":"2 68997  97.7758 158.8739 0001909  79.1758 280.9675 14.90439076 20823","mean_motion":14.90439076,"eccentricity":0.0001909,"inclination_deg":97.7758,"raan_deg":158.8739,"arg_perigee_deg":79.1758,"mean_anomaly_deg":280.9675,"bstar":0.00010604,"rev_number":2082,"period_min":96.615824369328,"perigee_km":595.23404954747,"apogee_km":597.8969909697,"semimajor_km":6974.7025202586,"source":"CELESTRAK","updated_at":"2026-09-20T09:00:24.624541Z"}}